EDT,Max TemperatureF,Mean TemperatureF,Min TemperatureF,Max Dew PointF,MeanDew PointF,Min DewpointF,Max Humidity, Mean Humidity, Min Humidity, Max Sea Level PressureIn, Mean Sea Level PressureIn, Min Sea Level PressureIn, Max VisibilityMiles, Mean VisibilityMiles, Min VisibilityMiles, Max Wind SpeedMPH, Mean Wind SpeedMPH, Max Gust SpeedMPH,PrecipitationIn, CloudCover, Events, WindDirDegrees
2013-5-1,78,73,68,75,73,70,100,90,78,30.00,29.97,29.94,9,6,4,15,5,,0.02,6,Fog-Rain-Tornado,121
2013-5-2,75,72,68,73,71,68,100,94,88,29.98,29.91,29.84,9,7,6,12,7,,0.12,7,Rain-Thunderstorm,105
2013-5-3,80,74,67,74,71,66,100,87,74,29.78,29.75,29.71,12,6,5,17,9,,0.24,5,Rain-Tornado,188
2013-5-4,80,74,69,72,70,68,100,81,70,29.75,29.72,29.70,6,6,6,14,7,,0.00,3,,306
2013-5-5,78,76,73,72,69,68,88,77,69,29.94,29.83,29.75,6,6,6,17,12,,0.00,4,,312
2013-5-6,78,74,71,63,61,59,69,56,47,29.99,29.96,29.93,12,8,6,12,8,,0.00,1,,342
2013-5-7,77,73,69,66,64,61,83,67,57,30.04,30.02,29.98,12,7,6,14,10,,0.00,3,,284
2013-5-8,80,75,70,68,67,64,78,68,61,30.11,30.09,30.06,12,7,6,12,6,,0.00,1,,256
2013-5-9,86,75,64,75,72,66,94,76,63,30.13,30.11,30.08,12,7,6,12,3,,0.00,2,,137
2013-5-10,84,78,72,76,74,72,94,77,66,30.11,30.08,30.05,12,7,6,12,6,,0.00,3,,144
2013-5-11,84,80,75,73,72,70,89,80,62,30.09,30.06,30.02,6,6,6,12,8,,0.00,2,,174
2013-5-12,84,80,75,73,72,72,94,82,66,30.04,30.00,29.97,6,6,6,14,9,,0.00,3,,212
2013-5-13,86,80,75,75,73,70,89,74,59,30.06,30.03,29.99,12,7,4,14,6,,0.00,4,,290
2013-5-14,79,75,71,63,60,57,69,55,43,30.15,30.13,30.08,12,7,6,16,14,,0.00,1,,45
2013-5-15,80,72,64,64,61,57,73,58,50,30.18,30.15,30.11,12,7,6,15,7,,0.00,4,,92
2013-5-16,80,71,62,65,63,59,78,63,50,30.10,30.09,30.06,12,7,6,8,5,,0.00,5,,113
2013-5-17,83,76,68,72,70,68,88,73,59,30.09,30.07,30.05,12,7,6,12,5,,0.00,6,,129
2013-5-18,80,76,71,72,69,63,83,72,54,30.13,30.10,30.06,6,6,6,12,7,,0.00,4,,129
2013-5-19,84,80,75,72,68,66,83,69,55,30.11,30.07,30.02,6,6,6,9,5,,0.00,3,,114
2013-5-20,82,78,75,72,71,70,89,76,70,30.09,30.05,30.02,6,6,6,12,8,,0.00,5,,143
2013-5-21,81,76,71,75,72,70,94,83,71,30.03,30.00,29.97,12,7,6,9,6,,0.04,6,Rain-Thunderstorm,120
2013-5-22,80,75,70,75,72,70,100,88,78,29.97,29.96,29.93,12,6,3,12,4,,0.51,6,Rain-Thunderstorm,128
2013-5-23,84,77,70,77,74,70,94,82,68,30.00,29.98,29.95,12,7,6,13,6,,0.20,4,Rain-Thunderstorm,285
2013-5-24,86,79,72,77,74,71,94,74,59,30.03,30.01,29.98,12,7,6,12,5,,0.00,3,Thunderstorm,358
2013-5-25,82,80,77,72,66,63,83,60,51,30.16,30.12,30.08,6,6,6,15,11,,0.00,1,,58
2013-5-26,82,76,69,68,66,63,83,67,61,30.17,30.15,30.12,6,6,6,127,14,,0.00,4,Rain,76
2013-5-27,84,78,71,73,71,66,83,73,61,30.14,30.12,30.09,12,7,6,15,8,,0.00,6,,96
2013-5-28,80,76,73,77,74,72,94,88,81,30.11,30.10,30.07,12,7,6,12,10,,0.20,7,Rain,110
2013-5-29,81,76,72,75,73,72,89,82,78,30.10,30.08,30.05,11,7,6,13,11,,0.12,8,Rain,116
2013-5-30,82,78,73,75,73,70,94,80,70,30.08,30.06,30.03,12,7,6,17,12,25,0.01,5,Rain,112
2013-5-31,82,77,72,76,74,70,94,84,78,30.06,30.05,30.02,12,8,6,14,9,,0.00,5,,107